Regional Weather Roundup
Issued by NWS

Home | Current Version | Previous Version | Graphics & Text | Print | Product List | Glossary On
Versions: 1 2 3 4 5 6 7 8 9 10 11 12 13 14 15 16 17 18 19 20 21 22 23 24 25 26 27 28 29 30 31 32 33 34 35 36 37 38 39 40 41 42 43 44 45 46 47 48 49 50
000
ASUS45 KBOI 180910
RWRID
WEATHER ROUNDUP FOR IDAHO
NATIONAL WEATHER SERVICE BOISE ID
300 AM MDT SAT APR 18 2015

NOTE: "FAIR" INDICATES FEW OR NO CLOUDS BELOW 12000 FEET
WITH NO SIGNIFICANT WEATHER AND/OR OBSTRUCTIONS TO VISIBILITY

IDZ012-014-181000-
SOUTHWEST IDAHO


CITY           SKY/WX    TMP DP  RH WIND       PRES   REMARKS
BOISE          CLEAR     47  33  58 CALM      30.05S
CALDWELL       CLEAR     52  28  40 W12       30.08R
MOUNTAIN HOME  CLEAR     51  31  45 NW15      30.03F
$$

IDZ016-017-181000-
SOUTHCENTRAL IDAHO


CITY           SKY/WX    TMP DP  RH WIND       PRES   REMARKS
BURLEY         CLEAR     39  25  57 SW6       30.02F WCI  35
JEROME         CLEAR     46  29  51 S5        30.03F
TWIN FALLS     CLEAR     50  25  37 SW15      30.04S
$$

IDZ019>023-181000-
SOUTHEAST IDAHO


CITY           SKY/WX    TMP DP  RH WIND       PRES   REMARKS
IDAHO FALLS    CLEAR     40  29  64 SW6       30.04F
POCATELLO      CLEAR     43  24  47 W6        30.05S
REXBURG        CLEAR     36  26  67 NE7       30.04F WCI  30
$$

IDZ006-010-011-018-031-032-181000-
CENTRAL IDAHO MOUNTAINS


CITY           SKY/WX    TMP DP  RH WIND       PRES   REMARKS
MCCALL         CLEAR     40  32  73 NW6       30.14F
HAILEY         CLEAR     43  25  49 NW14      30.08F
STANLEY          N/A     28  21  75 CALM      30.18S
SALMON         CLEAR     39  25  56 SE6       30.10S WCI  35
CHALLIS        CLEAR     41  24  51 VRB6      30.12R
$$

IDZ002-004-006-007-026-181000-
NORTHERN IDAHO


CITY           SKY/WX    TMP DP  RH WIND       PRES   REMARKS
LEWISTON       CLEAR     48  37  65 S6        30.13R
LOWELL           N/A     43  40  89 N3        30.19R
COEUR D`ALENE  CLEAR     46  36  66 E7        30.14R
MULLAN PASS    CLEAR     40  29  64 VRB5      30.16S
$$



USA.gov is the U.S. government's official web portal to all federal, state and local government web resources and services.